Погода в Кирсе

Погода в Кирсе : погода сейчас, прогноз погоды и архив. Всё, что Вы хотите узнать о погоде в Кирсе!

Поиск расширенной информации на нашем сайте:

Другие новости

Новости СМИ2

Главная страница сайта

Новости сайта

03.07.2017

Напоминаем, что на нашем специализированном сайте Метеоцентр.Азия вы можете получить высокодетализированные автоматические прогнозы погоды по пунктам России, СНГ и мира в авиационном формате (включающие направление и скорость ветра, видимость, явления погоды, количество и форму облачности, нижнюю и верхнюю границу облачности).

Рекомендуем: Информация кухня на заказ уфа здесь.

Погода в Кирсе - сегодня

Время (UTC), дата Ветер
(°,м/с) 
Видим.   Явления Облачность Т
(°С)
Тd
(°С)
f(%) Тe
(°С)
Pmin
(гПа)
dP
(гПа)
Po
(мм)
O2
(г/м3)
Тmin Tmax R s Состояние
почвы
15 10.12.17 тихо () -0{01}  20000 м    ясно 
-21.5 -24 80 -22  1027.9  0.9  754  331    -12  0.0     
18 10.12.17 тихо () -0{00}  20000 м    ясно 
-23.8 -26.3 80 -24  1028.8  0.6  754  335           
21 10.12.17 тихо () -0{05}  20000 м    ясно 
-24.9 -28.1 75 -25  1029.8  0.9  755  336           
00 11.12.17 тихо () -0{01}  10 км  слаб. снег  10/0 средняя 
[As trans]
-26.2 -29.4 74 -26  1030.7  0.8  755  338           
03 11.12.17 тихо () -0{01}  20000 м  {снег}  4/0 средняя 
[As trans]
-25.7 -28.8 75 -26  1031  0.3  755  338  -26.4    0.0  18  неравномерный
сухой снег
100% 
06 11.12.17 тихо () -0{03}  20000 м  {снег}  10/0 средняя 
[As trans]
-25.4 -28.5 75 -25  1031.8  0.8  756  338  -26.7         
09 11.12.17 тихо () -0{02}  20000 м    10/0 верхняя 
[Ci fib]
-19.3 -22.6 75 -19  1031.7  0.4  756  330           
12 11.12.17 070 (В) 1-2{04}  20000 м    10/0 верхняя 
[Ci fib]
-20.9 -24.2 75 -21  1031.5  -0.3  756  332           
15 11.12.17 080 (В) 1-2{03}  20000 м    10/0 верхняя 
[Ci fib]
-22.1 -24.4 82 -22  1031.3  -0.3  756  333    -17.6       
18 11.12.17 тихо () -0{03}  20000 м    ясно 
-22.3 -25.5 75 -22  1030.9  -0.4  756  333           
21 11.12.17 080 (В) 1-2{03}  20000 м    ясно 
-19.9 -23.2 75 -20  1030.5  -0.1  756  330           
00 12.12.17 тихо () -0{02}  20000 м    ясно 
-18.9 -21.5 80 -19  1029.5  -0.9  755  328           
03 12.12.17 080 (В) 1-3{05}  10 км  слаб. снег  10/0 средняя 
[As trans]
-14.5 -17.2 80 -15  1028.8  -0.3  755  323  -23.6    0.0  17  неравномерный
сухой снег
100% 
06 12.12.17 100 (В) 2-3{04}  8000 м  слаб. снег  10/0 средняя 
[As op]
-12.3 -15 80 -14  1028.9  0.3  755  320           
09 12.12.17 110 (В) 2-3{04}  15000 м  слаб. снег  10/0 средняя 
[Ac As]
-10.9 -13.7 80 -13  1029.3  0.5  755  318           
12 12.12.17 120 (ЮВ) 1-2{04}  6000 м  дымка{снег}  10/10 300 м 
[Sc]
-8.9 -11.2 83 -9  1029.6  0.4  756  316           
15 12.12.17 140 (ЮВ) 1-3{07}  4000 м  слаб. снег  10/10 300 м 
[Ns]
-8.7 -10.6 86 -8  1030  0.4  756  316    -8.7  0.3     
18 12.12.17 080 (В) 1-3{03}  4000 м  дымка{снег}  10/10 300 м 
[Ns]
-8.5 -10.4 86 -8  1030.3  0.3  756  315           
21 12.12.17 120 (ЮВ) 1-4{04}  4000 м  дымка  10/10 300 м 
[Ns]
-8.4 -10 88 -8  1030.1  -0.2  756  315           
00 13.12.17 090 (В) 1-3{05}  4000 м  дымка{морось} [диам. гололёда 1 мм]  10/10 300 м 
[St]
-7.4 -8.7 90 -7  1029  -0.9  755  314           
03 13.12.17 150 (ЮВ) 2-4{07}  4000 м  снежные зёрна [диам. гололёда 1 мм]  10/10 300 м 
[St]
-6.6 -8.2 88 -8  1027.7  -1.2  754  312  -8.7    0.0  17  неравномерный
сухой снег
100% 
06 13.12.17 140 (ЮВ) 1-3{05}  4200 м  дымка{снег}  10/10 200 м 
[St]
-5.3 -7.1 87 -5  1026.3  -1.3  753  310           
09 13.12.17 160 (Ю) 4-9{10}  4200 м  позёмок  10/10 300 м 
[Sc]
-3.8 -5.6 87 -7  1025.1  -1.1  753  308           
12 13.12.17 170 (Ю) 4-9{11}  4200 м  позёмок  10/10 300 м кучево-дожд. 
[Cb cap]
-3.2 -5.3 85 -6  1023  -1.9  751  307           
15 13.12.17 180 (Ю) 5-12{13}  4000 м  позёмок  10/10 300 м кучево-дожд. 
[Cb cap]
-3.4 -5.5 85 -7  1021  -2.1  750  306    -3.2  0.0     
Время (UTC), дата Ветер
(°,м/с) 
Видим.   Явления Облачность Т
(°С)
Тd
(°С)
f(%) Тe
(°С)
Pmin
(гПа)
dP
(гПа)
Po
(мм)
O2
(г/м3)
Тmin Tmax R s Состояние
почвы

Для получения пояснительной информации подведите курсор к названию столбца.

ПОГОДА в Кирсе - архив

Всё, что Вы хотите узнать о погоде в Кирсе - удобно и подробно!

Выберите нужную дату (начиная с 1 января 2015* года) и нажмите кнопку "Найти".
Будут отображены архивные сводки погоды по пункту Кирс, начиная с указанной даты.


Отображать данные в формате CSV (для использования в таблицах Excel)


Внимание! Наш архив погоды предназначен исключительно для личного некоммерческого использования в познавательных целях. Если Вам необходимы официальные справки о состоянии погоды (для производственных, юридических, коммерческих и т.п. целей), обращайтесь в органы Росгидромета.

*Примечание: данная дата относится к архиву по метеостанциям СССР (Россия, СНГ, Балтия).
Архив по метеостанциям Зарубежной Европы и Азии (кроме Китая) хранится 10 дней, по другим регионам земного шара (Китай, Африка, Америка, Австралия, Океания) - 1 день.

Кирс - район местоположения метеостанции


Название, широта, долгота, высота метеостанции:
Кирс 59.4°ш. 52.2°д. 169 м над ур. моря [Российская Федерация]

Дополнительная информация

В oтличие oт бoльшинства пoгoдных сайтoв мы публикуем пoдрoбную метеoинфoрмацию в детальнoм прoфессиoнальнoм фoрмате.

Характеристики температуры и влажнoсти вoздуха измеряются на высoте 2 м в тени вдали oт зданий и деревьев.
Скoрoсть ветра измеряется на высoте 10 м (на урoвне рoста челoвека скoрoсть ветра ниже в 1.5-2 раза). Если метеoстанция нахoдится в гoрoде или в лесу, тo скoрoсть ветра занижена на 2-4 м/с пo сравнению с oткрытым местoм. Скoрoсть ветра над акватoриями крупных рек и oзёр, а также на вершинах хoлмoв на 2-5 м/с выше, чем в oбычных услoвиях.
Атмoсфернoе давление в разных тoчках местнoсти мoжет значительнo oтличаться oт давления на метеoстанции, в зависимoсти oт услoвий рельефа (при пoдъёме на 10 м давление пoнижается примернo на 1 мм рт.ст.).